This is the latest recevied weather packets stored in our database for station/object N1JOV-7. If no packets are shown the sender has not sent any weather packets the latest 10 day(s).
| Time | Temp. | Humidity | Pressure | Rain* | Wind** | Luminosity | Snow |
|---|---|---|---|---|---|---|---|
| 1777485661 | 12.22° C | 77% | 1016.8 hPa | 0 mm | - | - | - |
| 1777485062 | 11.67° C | 77% | 1016.8 hPa | 0 mm | - | - | - |
| 1777484462 | 12.22° C | 77% | 1016.9 hPa | 0 mm | - | - | - |
| 1777483862 | 11.67° C | 78% | 1017.1 hPa | 0 mm | - | - | - |
| 1777483262 | 11.67° C | 78% | 1017.1 hPa | 0 mm | - | - | - |
| 1777482662 | 11.67° C | 78% | 1016.8 hPa | 0 mm | - | - | - |
| 1777482061 | 11.11° C | 79% | 1016.9 hPa | 0 mm | - | - | - |
| 1777481461 | 11.11° C | 80% | 1017 hPa | 0 mm | - | - | - |
| 1777480861 | 11.11° C | 80% | 1017.2 hPa | 0 mm | - | - | - |
| 1777480261 | 11.11° C | 80% | 1017.3 hPa | 0 mm | - | - | - |
| 1777479661 | 11.11° C | 79% | 1017.5 hPa | 0 mm | - | - | - |
| 1777479062 | 11.11° C | 79% | 1017.4 hPa | 0 mm | - | - | - |
| 1777478462 | 11.67° C | 79% | 1017.9 hPa | 0 mm | - | - | - |
| 1777477862 | 11.67° C | 80% | 1017.9 hPa | 0 mm | - | - | - |
| 1777477262 | 10.56° C | 82% | 1018.2 hPa | 0 mm | - | - | - |
| 1777476662 | 10.56° C | 82% | 1018.5 hPa | 0 mm | - | - | - |
| 1777476061 | 10° C | 85% | 1018.6 hPa | 0 mm | - | - | - |
| 1777475461 | 10° C | 85% | 1019.1 hPa | 0 mm | - | - | - |
| 1777474861 | 9.44° C | 87% | 1019.3 hPa | 0 mm | - | - | - |
| 1777474262 | 8.89° C | 88% | 1019.5 hPa | 0 mm | - | - | - |
| 1777473662 | 8.89° C | 88% | 1019.5 hPa | 0 mm | - | - | - |
| 1777473062 | 8.89° C | 89% | 1019.5 hPa | 0 mm | - | - | - |
| 1777472462 | 8.89° C | 90% | 1019.6 hPa | 0 mm | - | - | - |
| 1777471862 | 8.89° C | 90% | 1019.6 hPa | 0 mm | - | - | - |
| 1777471261 | 8.89° C | 90% | 1019.6 hPa | 0 mm | - | - | - |
* Rain latest hour (hover to see other rain measurements)
** Current wind speed in m/s (hover to see current wind gust speed)